Regional Weather Roundup
Issued by NWS Goodland, KS

Home | Current Version | Previous Version | Graphics & Text | Print | Product List | Glossary On
Versions: 1 2 3 4 5 6 7 8 9 10 11 12 13 14 15 16 17 18 19 20 21 22 23 24 25 26 27 28 29 30 31 32 33 34 35 36 37 38 39 40 41 42 43 44 45 46 47 48 49 50
000
ASUS43 KGLD 270059
RWRGLD

GOODLAND FORECAST AREA HOURLY WEATHER ROUNDUP
NATIONAL WEATHER SERVICE GOODLAND KS
700 PM MDT TUE MAY 26 2015

...OFFICIAL OBSERVATIONS...

CITY           SKY/WX    TMP DP  RH WIND       PRES   REMARKS
GOODLAND KS    MOSUNNY   67  54  63 SE3       30.01R
HILL CITY KS   CLEAR     70  52  52 NE7       29.97S
IMPERIAL NEB   SUNNY     68  49  50 E5        30.00R
MCCOOK NEB     CLEAR     70  47  43 E6        29.98R
AKRON CO       MOSUNNY   64  49  57 E13       30.02R
BURLINGTON CO  MOSUNNY   67  49  52 SE9       30.03R
LIMON CO       PTSUNNY   64  44  48 SE9       30.05R
$$

...UNOFFICIAL OBSERVATIONS...

CITY           SKY/WX    TMP DP  RH WIND       PRES   REMARKS
COLBY KS       CLEAR     70  54  56 CALM      30.01R
GOVE KS          N/A     72  32  23 MISG        N/A
LENORA KS        N/A     69  32  25 MISG        N/A
NORTON KS      CLEAR     70  43  37 N7        29.98R
SHARON SPRINGS   N/A     70  53  55 MISG        N/A
KIT CARSON CO    N/A     66  52  60 MISG        N/A
$$



USA.gov is the U.S. government's official web portal to all federal, state and local government web resources and services.